Terminal Aerodrome Forecast
Issued by NWS

Home | Current Version | Previous Version | Text Only | Print | Product List | Glossary On
Versions: 1 2 3 4 5 6 7 8 9 10 11 12 13 14
000
FTUS41 KPBZ 260243 AAA
TAFZZV
TAF AMD
KZZV 260243Z 2603/2624 18005KT P6SM BKN080
      TEMPO 2605/2607 5SM -SHRA BKN020
     FM260800 18003KT P6SM VCSH BKN035
     FM261600 20008KT P6SM VCTS BKN040CB=

USA.gov is the U.S. government's official web portal to all federal, state and local government web resources and services.